TIME,DELAY(SENSOR),PRES,T(CTD),SAL,OXYGEN,RAWTEMP,T(OPTODE),TCPHASE,TURBIDITY,TURBIDITY_GAIN,FLUOR,BETA,CDOM,ED411.5,ED443.8,ED489.6,PAR,COMP,TILT,TILTY(TILT),CHECK
1341867058,6503,260.4100036621094000,4.9142999649047850,34.9861984252929700,349.6358947753906000,761.4404296875000000,4.8858551979064940,34.1151618957519500,10,3,50,103,63,2147244662,2147555985,2147566568,2147363798,2647,0,-12,12427
1341867119,6469,257.3299865722656000,4.9142999649047850,34.9858016967773440,349.6651916503906000,761.4359130859375000,4.8860130310058590,34.1139984130859400,16,3,49,102,64,2147246769,2147557444,2147566994,2147362573,2434,0,-12,20446
1341867180,6465,254.2100067138672000,4.9138998985290530,34.9860000610351560,349.6520080566406000,761.4318237304688000,4.8861560821533200,34.1143608093261700,16,3,48,106,64,2147244187,2147559620,2147568612,2147364393,2219,0,-12,13485
1341867241,6467,251.0500030517578000,4.9135999679565430,34.9860992431640600,349.6553955078125000,761.4376831054688000,4.8859500885009770,34.1145095825195300,16,3,49,108,64,2147243876,2147559364,2147567377,2147364090,2019,0,-12,64457
1341867302,6504,247.9900054931640600,4.9137001037597660,34.9856986999511700,349.6095886230469000,761.4387817382812000,4.8859100341796875,34.1160202026367200,16,3,50,105,64,2147244109,2147560584,2147569759,2147363282,1801,0,-12,25072
1341867363,6468,244.8999938964843800,4.9134998321533200,34.9855995178222660,349.7777099609375000,761.4487304687500000,4.8855628967285160,34.1108207702636700,16,3,50,104,64,2147242486,2147558289,2147569873,2147362792,1589,0,-12,26473
1341867424,6467,241.8399963378906200,4.9130001068115230,34.9860992431640600,349.9216003417969000,761.4497070312500000,4.8855290412902830,34.1058311462402340,16,3,48,115,64,2147245722,2147557974,2147572246,2147357151,1410,0,-12,9319
1341867485,6469,238.8399963378906200,4.9123997688293460,34.9864997863769500,349.7532958984375000,761.4544067382812000,4.8853631019592285,34.1114501953125000,16,3,50,124,64,2147246660,2147558193,2147570733,2147363739,1219,0,-12,35769
1341867546,6469,235.8500061035156200,4.9121999740600590,34.9865989685058600,349.8051147460937500,761.4625854492188000,4.8850769996643070,34.1102600097656250,16,3,49,104,63,2147248739,2147558235,2147562481,2147359354,958,0,-12,29063
1341867607,6469,232.9299926757812500,4.9123997688293460,34.9860992431640600,349.7746887207031000,761.4702148437500000,4.8848128318786620,34.1110191345214840,16,3,49,113,64,2147243913,2147557325,2147565398,2147363341,673,0,-12,41838
1341867671,6466,229.8500061035156200,4.9123001098632810,34.9859008789062500,349.7705078125000000,761.4758300781250000,4.8846149444580080,34.1113281250000000,16,3,48,108,64,2147247849,2147556864,2147568200,2147361179,281,0,-12,17387
1341867732,6467,226.9499969482422000,4.9119000434875490,34.9861984252929700,349.9291076660156000,761.4780273437500000,4.8845391273498535,34.1062202453613300,16,3,50,106,64,2147248881,2147559030,2147566234,2147361796,3442,0,-12,13471
1341867795,6468,223.8999938964843800,4.9113001823425290,34.9864997863769500,350.0120849609375000,761.4868164062500000,4.8842320442199710,34.1035003662109400,16,3,49,108,64,2147248058,2147556726,2147568923,2147361508,3106,0,-12,52627
1341867856,6466,221.0000000000000000,4.9116001129150390,34.9859008789062500,350.0582885742187500,761.4916992187500000,4.8840579986572270,34.1021804809570300,16,3,48,107,64,2147246985,2147558861,2147567117,2147360076,2831,0,-12,14204
1341867919,6468,217.9600067138672000,4.9109997749328610,34.9864006042480500,349.9110107421875000,761.4959716796875000,4.8839092254638670,34.1072616577148440,16,3,49,108,64,2147244273,2147558683,2147569074,2147362143,2595,0,-12,41909
1341867980,6468,215.0099945068359400,4.9109001159667970,34.9863014221191400,349.9104919433594000,761.5009155273438000,4.8837361335754395,34.1071815490722660,16,3,49,110,64,2147246788,2147557156,2147570889,2147359771,2373,0,-12,33034
1341868043,6466,211.9600067138672000,4.9109001159667970,34.9861984252929700,350.0570983886719000,761.5079956054688000,4.8834900856018070,34.1023101806640600,16,3,48,112,64,2147242838,2147560451,2147569970,2147359524,2201,0,-12,32739
1341868104,6468,209.0099945068359400,4.9109001159667970,34.9859008789062500,350.0216979980469000,761.5101928710938000,4.8834128379821780,34.1035690307617200,16,3,49,108,66,2147244721,2147560397,2147569983,2147361343,2088,0,-12,56256
1341868167,6468,206.0099945068359400,4.9106001853942870,34.9860992431640600,349.9042053222656000,761.5151977539062000,4.8832359313964840,34.1077613830566400,16,3,50,109,64,2147244004,2147560369,2147570006,2147362317,1949,0,-12,43417
1341868228,6466,203.1300048828125000,4.9099998474121090,34.9864006042480500,350.0375061035156000,761.5197753906250000,4.8830738067626950,34.1034317016601560,16,3,49,112,64,2147242522,2147557709,2147573283,2147362088,1718,0,-12,62272
1341868292,6467,200.1399993896484400,4.9100999832153320,34.9861984252929700,349.9352111816406000,761.5247802734375000,4.8828978538513180,34.1067314147949200,16,3,48,106,64,2147246198,2147561718,2147572297,2147363089,1539,0,-12,14200
1341868353,6468,197.2899932861328000,4.9099998474121090,34.9861984252929700,350.0325927734375000,761.5332031250000000,4.8826050758361820,34.1035995483398440,16,3,50,110,64,2147244054,2147559830,2147571926,2147360420,1306,0,-12,17098
1341868416,6467,194.4199981689453000,4.9099001884460450,34.9863014221191400,350.0969848632812500,761.5297241210938000,4.8827290534973145,34.1016197204589840,16,3,48,106,63,2147249376,2147560470,2147572968,2147365457,1097,0,-12,20251
1341868477,6469,191.6900024414062500,4.9098000526428220,34.9860992431640600,349.9645080566406000,761.5344238281250000,4.8825650215148930,34.1062812805175800,16,3,50,110,64,2147246605,2147559624,2147570966,2147363990,884,0,-12,51349
1341868540,6468,188.9600067138672000,4.9099001884460450,34.9860000610351560,350.0198974609375000,761.5366821289062000,4.8824830055236820,34.1040611267089840,16,3,49,109,65,2147246193,2147559926,2147573952,2147361489,573,0,-12,44951
1341868601,6468,186.3399963378906200,4.9099001884460450,34.9858016967773440,349.9231872558594000,761.5360107421875000,4.8825068473815920,34.1074295043945300,16,3,50,107,64,2147244420,2147559556,2147573146,2147361691,275,0,-12,55853
1341868664,6469,183.6600036621093800,4.9098000526428220,34.9860000610351560,349.7645874023437500,761.5388793945312000,4.8824062347412110,34.1126785278320300,15,3,50,109,64,2147241210,2147557777,2147572305,2147363793,3509,0,-12,57588
1341868725,6468,181.0599975585937500,4.9096999168396000,34.9860000610351560,349.7192077636719000,761.5418701171875000,4.8823008537292480,34.1144714355468750,16,3,50,112,64,2147243569,2147556991,2147573819,2147363684,3186,0,-12,7710
1341868788,6468,178.4100036621093800,4.9093999862670900,34.9860000610351560,349.8129882812500000,761.5447998046875000,4.8821997642517090,34.1114997863769500,16,3,48,111,64,2147244013,2147557883,2147571345,2147364923,2931,0,-12,34381
1341868849,6468,175.8899993896484400,4.9093999862670900,34.9860992431640600,349.7770080566406000,761.5463256835938000,4.8821468353271480,34.1124916076660160,10,3,50,110,64,2147244854,2147558435,2147572342,2147362019,2736,0,-12,26047
1341868913,6468,173.2799987792968800,4.9092001914978030,34.9860000610351560,349.7916870117187500,761.5493164062500000,4.8820419311523440,34.1123199462890600,16,3,48,109,64,2147244507,2147562125,2147573901,2147361609,2536,0,-12,8235
1341868974,6467,170.8600006103515600,4.9092001914978030,34.9860000610351560,349.7695007324219000,761.5513916015625000,4.8819689750671390,34.1129493713378900,16,3,48,109,64,2147243725,2147560662,2147573892,2147361403,2416,0,-12,33402
1341869066,6469,166.5000000000000000,4.9098000526428220,34.9855003356933600,349.7533874511719000,761.5687255859375000,4.8813648223876950,34.1139106750488300,16,3,48,124,64,2147244675,2147557170,2147574528,2147362267,2084,0,-12,28902
1341869127,6504,162.7700042724609400,4.9098000526428220,34.9860000610351560,349.6337890625000000,761.5552978515625000,4.8818321228027340,34.1177406311035160,16,3,49,115,63,2147243880,2147560936,2147576676,2147359994,1823,0,-12,26873
1341869190,6466,158.9299926757812500,4.9096999168396000,34.9860000610351560,349.6527099609375000,761.5529785156250000,4.8819122314453125,34.1169815063476560,16,3,50,117,64,2147243720,2147561234,2147577005,2147362431,1602,0,-12,61373
1341869251,6468,155.2599945068359400,4.9092998504638670,34.9861984252929700,349.5765075683594000,761.5535278320312000,4.8818969726562500,34.1195106506347660,16,3,50,118,64,2147247670,2147560667,2147576534,2147363931,1401,0,-12,39833
1341869340,6465,150.6100006103515600,4.9099001884460450,34.9858016967773440,349.3204956054687500,761.5509033203125000,4.8819870948791500,34.1281509399414060,16,3,50,117,65,2147245804,2147560109,2147576489,2147363181,1119,0,-12,26361
1341869401,6468,148.2700042724609400,4.9099001884460450,34.9860992431640600,349.3688964843750000,761.5397949218750000,4.8823738098144530,34.1262893676757800,16,3,48,123,65,2147242815,2147561069,2147578833,2147364415,912,0,-12,51620
1341869464,6468,145.9299926757812500,4.9102997779846190,34.9859008789062500,349.3511047363281000,761.5266113281250000,4.8828349113464355,34.1266403198242200,16,3,50,120,64,2147242683,2147560456,2147578042,2147362724,673,0,-12,40442
1341869525,6468,143.7500000000000000,4.9102001190185550,34.9856986999511700,349.2638854980469000,761.5253906250000000,4.8828811645507810,34.1295509338378900,16,3,50,125,65,2147245873,2147562889,2147580977,2147362664,295,0,-12,31153
1341869614,6467,139.9799957275390600,4.9100999832153320,34.9861984252929700,349.2802124023437500,761.5377807617188000,4.8824439048767090,34.1293296813964840,16,3,50,117,64,2147243218,2147559848,2147579780,2147366262,3254,0,-12,23892
1341869675,6467,136.6600036621093800,4.9102997779846190,34.9863014221191400,349.3713073730469000,761.5220947265625000,4.8829960823059080,34.1258201599121100,16,3,48,121,65,2147244662,2147560722,2147585979,2147362948,2930,0,-12,39641
1341869738,6502,133.2599945068359400,4.9123997688293460,34.9851989746093750,349.3893127441406000,761.4915771484375000,4.8840641975402830,34.1245117187500000,16,3,50,120,64,2147244214,2147558171,2147581686,2147367592,2713,0,-12,40936
1341869799,6467,130.0200042724609400,4.9126000404357910,34.9855003356933600,349.3476867675781000,761.4658203125000000,4.8849639892578125,34.1255302429199200,12,3,50,123,64,2147245718,2147559977,2147584237,2147365924,2398,0,-12,17172
1341869862,6467,126.7099990844726600,4.9140000343322750,34.9855995178222660,349.2426147460937500,761.4229736328125000,4.8864650726318360,34.1283302307128900,16,3,50,120,64,2147245220,2147560511,2147585530,2147363784,2221,0,-12,33537
1341869923,6468,123.6500015258789000,4.9152002334594730,34.9856986999511700,349.2161865234375000,761.3817138671875000,4.8879089355468750,34.1283912658691400,16,3,50,118,65,2147244849,2147558381,2147583939,2147364228,1854,0,-12,49873
1341869986,6468,120.5199966430664000,4.9214000701904300,34.9852981567382800,349.0433044433594000,761.2313842773438000,4.8931708335876465,34.1312904357910160,16,3,50,122,64,2147245869,2147562746,2147585234,2147363208,1628,0,-12,7139
1341870047,6468,117.5400009155273400,4.9243998527526855,34.9850006103515600,348.9229125976562500,761.1337280273438000,4.8965911865234375,34.1333503723144500,19,3,50,128,64,2147242458,2147562486,2147587295,2147366120,1320,0,-12,47106
1341870110,6467,114.4000015258789000,4.9264998435974120,34.9850006103515600,349.0369873046875000,761.0686035156250000,4.8988718986511230,34.1282310485839840,16,3,50,132,64,2147244840,2147561475,2147586468,2147366816,1198,0,-12,27151
1341870171,6468,111.3300018310546900,4.9281001091003420,34.9852981567382800,348.8904113769531000,761.0170898437500000,4.9006748199462890,34.1319694519043000,16,3,50,122,64,2147244881,2147565251,2147587716,2147364982,929,0,-12,24250
1341870235,6469,107.9800033569336000,4.9302000999450680,34.9854011535644500,349.0754089355469000,760.9470825195312000,4.9031238555908200,34.1244697570800800,12,3,50,123,64,2147241649,2147563451,2147591423,2147363652,707,0,-12,54471
1341870296,6468,104.7900009155273400,4.9320998191833500,34.9849014282226560,349.0046081542969000,760.9033203125000000,4.9046587944030760,34.1258888244628900,15,3,50,122,66,2147246171,2147562673,2147593092,2147365485,407,0,-12,60679
1341870359,6467,101.6600036621093800,4.9310002326965330,34.9850997924804700,348.9288024902344000,760.9334716796875000,4.9036011695861820,34.1290397644043000,16,3,50,121,65,2147247387,2147562618,2147593782,2147365554,3343,0,-12,32253
1341870420,6467,98.4800033569336000,4.9341998100280760,34.9851989746093750,348.9981994628906000,760.7844238281250000,4.9088191986083980,34.1236610412597660,16,3,50,125,64,2147245677,2147563341,2147600982,2147368556,3136,0,-12,12670
1341870483,6465,95.0699996948242200,4.9517998695373535,34.9846992492675800,348.8649902343750000,760.3552246093750000,4.9238409996032715,34.1198997497558600,16,3,52,127,64,2147245201,2147560209,2147606829,2147365530,2649,0,-12,15885
1341870544,6468,91.6699981689453100,4.9731001853942870,34.9845008850097660,348.5219116210937500,759.7567749023438000,4.9447779655456540,34.1196594238281250,16,3,51,128,64,2147248544,2147564594,2147607611,2147365746,2484,0,-12,16194
1341870607,6468,88.2099990844726600,4.9902000427246090,34.9850997924804700,348.2506103515625000,759.2567749023438000,4.9622669219970700,34.1188392639160160,16,3,53,134,66,2147246733,2147565270,2147613394,2147366980,2307,0,-12,39456
1341870668,6468,84.8300018310546900,5.0254001617431640,34.9847984313964840,348.0422973632812500,757.9893188476562000,5.0065917968750000,34.1008491516113300,14,3,56,130,66,2147245000,2147566952,2147617732,2147369210,1938,0,-10,51460
1341870731,6503,81.3700027465820300,5.0696997642517090,34.9863014221191400,348.1477966308594000,757.0493164062500000,5.0394458770751950,34.0791397094726560,15,3,60,140,66,2147246500,2147566084,2147628045,2147372804,1738,0,-12,31392
1341870792,6467,78.0599975585937500,5.0805001258850100,34.9865989685058600,348.2742004394531000,756.7047729492188000,5.0514850616455080,34.0677680969238300,16,3,62,137,64,2147246381,2147572808,2147637599,2147375899,1413,0,-12,12296
1341870856,6469,74.5400009155273400,5.1128997802734375,34.9865989685058600,347.9834899902344000,755.7031250000000000,5.0864748954772950,34.0579414367675800,16,3,68,138,66,2147248269,2147575162,2147650134,2147375098,1186,0,-12,17945
1341870917,6468,71.1299972534179700,5.1607999801635740,34.9884986877441400,347.8504943847656000,754.4321899414062000,5.1308522224426270,34.0377082824707000,16,3,76,140,64,2147248484,2147579848,2147665828,2147380918,701,0,-12,43326
1341870980,6467,67.5299987792968800,5.1851000785827640,34.9897003173828100,348.0278930664062500,753.7239990234375000,5.1555671691894530,34.0174407958984400,16,3,78,143,65,2147251227,2147585146,2147682417,2147383048,214,0,-12,57618
1341871041,6467,64.1200027465820300,5.2104997634887695,34.9905014038085940,348.2562866210937500,752.9957885742188000,5.1809730529785160,33.9955596923828100,14,3,82,146,66,2147253064,2147587450,2147703350,2147391889,52,0,-12,62909
1341871104,6466,60.6599998474121100,5.2255001068115230,34.9910011291503900,348.3837890625000000,752.5581054687500000,5.1962409019470215,33.9828414916992200,17,3,82,158,66,2147254975,2147597366,2147727386,2147401059,3013,0,-12,8132
1341871165,6504,57.3600006103515600,5.2480001449584960,34.9912986755371100,348.3091125488281000,751.7012939453125000,5.2261219024658200,33.9687690734863300,16,3,86,150,66,2147260255,2147601805,2147745695,2147403579,2692,0,-12,43794
1341871228,6470,54.0999984741210940,5.3372001647949220,34.9935989379882800,348.3541870117187500,749.4697265625000000,5.3038902282714840,33.9233894348144500,17,3,116,155,66,2147260703,2147609010,2147769188,2147410710,2638,0,-12,7952
1341871289,6467,51.2599983215332000,5.4436001777648930,34.9967994689941400,349.0451049804687500,746.4436035156250000,5.4092268943786620,33.8413200378418000,20,3,138,164,66,2147265101,2147619062,2147787926,2147418956,2420,0,-12,57574
1341871352,6470,48.4599990844726560,5.4937000274658200,35.0001983642578100,350.0270996093750000,744.7044067382812000,5.4697089195251465,33.7747383117675800,19,3,150,184,66,2147270372,2147626248,2147811889,2147429668,2019,0,-12,34109
1341871413,6468,45.8199996948242200,5.6027002334594730,35.0013999938964840,351.4299011230469000,741.9163818359375000,5.5665721893310550,33.6740989685058600,33,3,187,209,66,2147274573,2147636808,2147840297,2147438715,1898,0,-12,10708
1341871477,6470,43.2500000000000000,5.6326999664306640,35.0021018981933600,352.9580993652344000,740.6867065429688000,5.6092591285705570,33.5996284484863300,26,3,191,205,64,2147281887,2147649338,2147863739,2147451030,1449,0,-11,5794
1341871538,6467,40.6599998474121100,5.6666998863220215,35.0033988952636700,353.4753112792969000,739.4940795898438000,5.6506371498107910,33.5597190856933600,26,3,196,230,66,2147294660,2147661083,2147901416,2147465444,1220,0,-12,31429
1341871601,6470,37.5299987792968750,5.7713999748229980,35.0033988952636700,354.5831909179687500,736.8662109375000000,5.7417368888854980,33.4729385375976560,42,3,301,308,65,2147322701,2147702367,2147996918,2147504379,982,0,-12,22972
1341871662,6470,33.6500015258789060,5.7962999343872070,35.0041007995605500,356.4580078125000000,736.0953979492188000,5.7684421539306640,33.3967781066894500,39,3,330,351,66,2147385668,2147790628,2148198820,2147585325,1009,0,-11,46803
1341871751,6468,27.1700000762939450,5.9847998619079590,35.0035018920898440,357.7077941894531000,731.5485839843750000,5.9257831573486330,33.2699203491210940,48,3,470,382,65,2147617608,2148122852,2148831204,2147836095,70,0,-12,4332
1341871812,6470,23.8799991607666000,6.0276999473571780,35.0055999755859400,359.0338134765625000,729.7813720703125000,5.9868597984313965,33.1936607360839840,57,3,494,391,66,2147821764,2148401988,2149298038,2148026532,70,0,-12,37490
1341871875,6469,21.6000003814697270,6.0836000442504880,35.0064010620117200,360.0072937011719000,728.0803222656250000,6.0456070899963380,33.1300392150878900,59,3,481,429,66,2147998084,2148623469,2149637503,2148176013,3346,0,-11,14544
1341871936,6470,20.6900005340576170,6.0826001167297360,35.0085983276367200,361.3133850097656000,727.8082275390625000,6.0549998283386230,33.0830192565918000,68,3,490,414,65,2148039103,2148644159,2149667313,2148193137,3148,0,-11,10916
1341872072,6468,18.0100002288818360,6.8357000350952150,35.0043983459472660,362.1134948730469000,702.9114990234375000,6.9101219177246090,32.6004295349121100,79,3,628,605,66,2148664054,2149296525,2150545188,2148611771,3219,0,-12,4958
1341872152,6470,15.7200002670288090,9.1618003845214840,34.9962005615234400,365.1878967285156000,638.3543701171875000,9.0897750854492190,31.3916206359863280,101,3,780,858,64,2149273983,2149958623,2151384950,2148995698,628,0,-11,31413
1341872304,6469,14.2500000000000000,10.7826995849609380,35.0377006530761700,363.4338989257812500,588.1646118164062000,10.7505998611450200,30.6426105499267580,99,3,778,572,62,2149945196,2150699771,2152274998,2149415450,1987,0,-11,50901
1341872377,6505,12.1199998855590820,10.9201002120971680,35.0469017028808600,362.4801025390625000,583.6437988281250000,10.8988800048828120,30.6017799377441400,90,3,723,510,62,2151024731,2151871683,2153610029,2150083739,1780,0,-10,39635
1341872457,6468,9.2500000000000000,11.0565004348754880,35.0475997924804700,361.2406005859375000,579.3168945312500000,11.0406198501586910,30.5730304718017580,92,3,686,601,62,2153409795,2154399199,2156257220,2151546784,1593,1,-15,55523
1341872530,6470,6.1399998664855960,11.1245002746582030,35.0511016845703100,360.4596862792969000,577.0177001953125000,11.1158504486083980,30.5617103576660160,82,3,664,587,64,2157198107,2158342289,2160104667,2153999712,1126,16,1,58813
1341872585,6469,3.7000000476837160,11.1230001449584960,35.0527000427246100,360.2275085449219000,576.9295043945312000,11.1187400817871100,30.5674400329589840,90,3,644,620,62,2161304301,2162484337,2163736278,2157107679,1248,-5,-10,61112
1341872632,6468,2.3900001049041750,0.0000000000000000,0.0000000000000000,360.1217041015625000,576.9063720703125000,11.1195001602172850,30.5703907012939450,89,3,644,539,61,2163781736,2164956717,2165787921,2159512064,425,-6,-19,49935
1341872663,6469,7.0000000000000000,0.0000000000000000,0.0000000000000000,360.3200988769531000,576.9130859375000000,11.1192798614501950,30.5643100738525400,87,3,633,509,62,2168747144,2170578975,2170775930,2164680507,780,21,2,29792
